User: anonymous   Login
Location: Pilipovskiye Korichintsy
(49.1833°N, 27.4667°E)
Time: 19:21:49
(UTC+00:00)
Language:

Abrixas rocket - Orbit

View from above orbital plane
View from above orbital plane
View from above satellite
View from above satellite

Ground track
Ground track

The orbit data is extracted from the following two-line orbital elements,

1 25723U 99022C   20263.12258811 +.00019396 +00000-0 +11854-3 0  9992
2 25723 048.4106 208.5421 0004623 087.4164 272.7320 15.77271205192755
Epoch (UTC): 19 September 2020 02:56:31
Eccentricity: 0.0004623
inclination: 48.4106°
perigee height: 335 km
apogee height: 341 km
right ascension of ascending node: 208.5421°
argument of perigee: 87.4164°
revolutions per day: 15.77271205
mean anomaly at epoch: 272.7320°
orbit number at epoch: 19275

The dashed part of the orbit path shows where the satellite is in the earth's shadow,  

DLR